Dublin, Ireland

1:04 AM GMT on February 28, 2017 (GMT +0000)
Dublin Airport

Weather History for EIDW - August, 2013

Change the Weather History Date:

Thursday, August 1, 2013

  Actual Average Record
Temperature  
Mean Temperature 66 °F -  
Max Temperature 69 °F 65 °F 69 °F (1999)
Min Temperature 62 °F 52 °F 48 °F (1999)
Growing Degree Days 16 (Base 50)    
Moisture  
Dew Point 61 °F    
Average Humidity 86    
Maximum Humidity 94    
Minimum Humidity 73    
Precipitation  
Precipitation 0.12 in 0.09 in - ()
Sea Level Pressure  
Sea Level Pressure 29.63 in    
Wind  
Wind Speed 11 mph ()    
Max Wind Speed 18 mph    
Max Gust Speed -    
Visibility 6.0 miles    
Events Fog , Rain    
Averages and records for this station are not official NWS values.
T = Trace of Precipitation, MM = Missing Value Source: Averaged Metar Reports

Daily Weather History Graph

Daily Weather History Graph

Search for Another Location

Airport or City:

Trip Planner

Search our weather history database for the weather conditions in past years. The results will help you decide how hot, cold, wet, or windy it might be!

Date:

Astronomy

Aug. 01, 2013 Rise Set
Actual Time 5:41 AM IST 9:20 PM IST
Civil Twilight 4:57 AM IST 10:03 PM IST
Nautical Twilight 3:57 AM IST 11:03 PM IST
Astronomical Twilight 2:12 AM IST 12:41 AM IST
Moon 1:04 AM IST (8/1) 5:22 PM IST (8/1)
Length of Visible Light 17h 06m
Length of Day
15h 39m
Waning Crescent, 25% of the Moon is Illuminated
Aug 1
Waning Crescent
Aug 6
New
Aug 14
First Quarter
Aug 21
Full
Aug 28
Last Quarter

Hourly Weather History & Observations

Time (IST) Temp. Dew Point Humidity Pressure Visibility Wind Dir Wind Speed Gust Speed Precip Events Conditions
12:00 AM 64.4 °F 60.8 °F 88% 29.68 in 6.2 mi SSW 10.4 mph - N/A   Mostly Cloudy
12:30 AM 64.4 °F 60.8 °F 88% 29.71 in 6.2 mi SSW 12.7 mph - N/A   Mostly Cloudy
1:00 AM 65 °F 61 °F 82% 29.72 in 25 mi SSW 13.4 mph - - Rain Light Rain
1:00 AM 66.2 °F 60.8 °F 83% 29.71 in 6.2 mi SSW 11.5 mph - N/A   Mostly Cloudy
1:30 AM 66.2 °F 60.8 °F 83% 29.71 in 6.2 mi SSW 11.5 mph - N/A   Mostly Cloudy
2:00 AM 66.2 °F 60.8 °F 83% 29.71 in 6.2 mi South 9.2 mph - N/A   Mostly Cloudy
2:30 AM 66.2 °F 60.8 °F 83% 29.68 in 6.2 mi South 9.2 mph - N/A   Mostly Cloudy
3:00 AM 66.2 °F 60.8 °F 83% 29.68 in 6.2 mi SE 4.6 mph - N/A   Mostly Cloudy
3:30 AM 64.4 °F 60.8 °F 88% 29.68 in 6.2 mi ESE 8.1 mph - N/A   Mostly Cloudy
4:00 AM 62.6 °F 60.8 °F 94% 29.68 in 6.2 mi ESE 8.1 mph - N/A Rain Light Rain
4:30 AM 64.4 °F 62.6 °F 94% 29.65 in 6.2 mi SE 6.9 mph - N/A Rain Light Rain
5:00 AM 64.4 °F 62.6 °F 94% 29.65 in 6.2 mi SSE 6.9 mph - N/A   Mostly Cloudy
5:30 AM 64.4 °F 62.6 °F 94% 29.65 in 6.2 mi Variable 2.3 mph - N/A   Mostly Cloudy
6:00 AM 66.2 °F 62.6 °F 88% 29.65 in 6.2 mi ESE 6.9 mph - N/A   Mostly Cloudy
6:30 AM 66.2 °F 62.6 °F 88% 29.65 in 6.2 mi ESE 9.2 mph - N/A   Mostly Cloudy
7:00 AM 64 °F 62 °F 90% 29.66 in 31 mi ESE 11.2 mph - -   Partly Cloudy
7:00 AM 64.4 °F 62.6 °F 94% 29.65 in 6.2 mi ESE 10.4 mph - N/A   Mostly Cloudy
7:30 AM 64.4 °F 62.6 °F 94% 29.65 in 6.2 mi SE 9.2 mph - N/A   Mostly Cloudy
8:00 AM 64.4 °F 62.6 °F 94% 29.65 in 6.2 mi SE 10.4 mph - N/A Rain Light Rain
8:30 AM 64.4 °F 62.6 °F 94% 29.65 in 4.3 mi SSE 6.9 mph - N/A Rain Light Rain
9:00 AM 64.4 °F 60.8 °F 88% 29.65 in 2.8 mi South 8.1 mph - N/A Rain Light Rain
9:30 AM 66.2 °F 60.8 °F 83% 29.65 in 3.7 mi South 11.5 mph - N/A Rain Light Rain
10:00 AM 66.2 °F 60.8 °F 83% 29.65 in 5.0 mi South 11.5 mph - N/A Rain Light Rain
10:30 AM 66.2 °F 60.8 °F 83% 29.65 in 5.6 mi ESE 12.7 mph - N/A   Light Drizzle
11:00 AM 64.4 °F 62.6 °F 94% 29.65 in 5.6 mi SE 15.0 mph - N/A   Light Drizzle
11:30 AM 64.4 °F 62.6 °F 94% 29.65 in 6.2 mi SE 13.8 mph - N/A   Mostly Cloudy
12:00 PM 68.0 °F 62.6 °F 83% 29.62 in 6.2 mi SSE 10.4 mph - N/A   Mostly Cloudy
12:30 PM 69.8 °F 60.8 °F 73% 29.62 in 6.2 mi SSE 10.4 mph - N/A   Mostly Cloudy
1:00 PM 66 °F 62 °F 82% 29.63 in 7 mi SSE 15.7 mph - - Fog Light Fog
1:00 PM 66.2 °F 62.6 °F 88% 29.62 in 6.2 mi SSE 16.1 mph - N/A   Mostly Cloudy
1:30 PM 68.0 °F 62.6 °F 83% 29.62 in 6.2 mi SSE 16.1 mph - N/A   Mostly Cloudy
2:00 PM 69.8 °F 62.6 °F 78% 29.62 in 6.2 mi SE 16.1 mph - N/A   Mostly Cloudy
2:30 PM 69.8 °F 60.8 °F 73% 29.62 in 6.2 mi SSE 16.1 mph - N/A   Mostly Cloudy
3:00 PM 69.8 °F 60.8 °F 73% 29.59 in 6.2 mi SSE 17.3 mph - N/A   Mostly Cloudy
3:30 PM 68.0 °F 60.8 °F 78% 29.59 in 6.2 mi SSE 18.4 mph - N/A   Mostly Cloudy
4:00 PM 68.0 °F 60.8 °F 78% 29.59 in 6.2 mi SSE 16.1 mph - N/A   Mostly Cloudy
4:30 PM 68.0 °F 60.8 °F 78% 29.59 in 6.2 mi SSE 17.3 mph - N/A   Mostly Cloudy
5:00 PM 68.0 °F 60.8 °F 78% 29.59 in 6.2 mi SSE 15.0 mph - N/A   Mostly Cloudy
5:30 PM 68.0 °F 62.6 °F 83% 29.59 in 6.2 mi SSE 13.8 mph - N/A Rain Light Rain Showers
6:00 PM 68.0 °F 60.8 °F 78% 29.59 in 6.2 mi SSE 13.8 mph - N/A   Mostly Cloudy
6:30 PM 68.0 °F 60.8 °F 78% 29.56 in 6.2 mi SE 17.3 mph - N/A   Mostly Cloudy
7:00 PM 66.2 °F 60.8 °F 83% 29.56 in 6.2 mi SE 13.8 mph - N/A   Mostly Cloudy
7:30 PM 66.2 °F 60.8 °F 83% 29.56 in 6.2 mi SE 15.0 mph - N/A   Mostly Cloudy
8:00 PM 64.4 °F 60.8 °F 88% 29.56 in 6.2 mi SSE 15.0 mph - N/A   Mostly Cloudy
8:30 PM 64.4 °F 60.8 °F 88% 29.56 in 6.2 mi SE 13.8 mph - N/A   Mostly Cloudy
9:00 PM 64.4 °F 60.8 °F 88% 29.56 in 6.2 mi SE 13.8 mph - N/A   Mostly Cloudy
9:30 PM 62.6 °F 60.8 °F 94% 29.56 in 6.2 mi SE 16.1 mph - N/A   Light Drizzle
10:00 PM 62.6 °F 60.8 °F 94% 29.56 in 6.2 mi SE 16.1 mph - N/A   Light Drizzle
10:30 PM 62.6 °F 60.8 °F 94% 29.56 in 6.2 mi SE 13.8 mph - N/A   Light Drizzle
11:00 PM 62.6 °F 60.8 °F 94% 29.56 in 6.2 mi SE 13.8 mph - N/A   Light Drizzle
11:30 PM 62.6 °F 60.8 °F 94% 29.53 in 6.2 mi SE 13.8 mph - N/A   Light Drizzle